Regional Weather Roundup
Issued by NWS Portland, ME

Home | Current Version | Previous Version | Text Only | Print | Product List | Glossary On
Versions: 1 2 3 4 5 6 7 8 9 10 11 12 13 14 15 16 17 18 19 20 21 22 23 24 25 26 27 28 29 30 31 32 33 34 35 36 37 38 39 40 41 42 43 44 45 46 47 48 49 50
000
ASUS41 KGYX 211210
RWRGYX
WEATHER ROUNDUP FOR MAINE AND NEW HAMPSHIRE
NATIONAL WEATHER SERVICE GRAY ME
800 AM EDT MON APR 21 2014

MEZ002-005-006-010-012-015-018-020-021-024-026-027-029-211300-
MAINE

CITY           SKY/WX    TMP DP  RH WIND       PRES   REMARKS
PORTLAND       MOSUNNY   41  31  67 SW10      30.18F
6HR MIN TEMP:  35; 6HR MAX TEMP:  41;

SANFORD        MOSUNNY   39 -11  11 SW5       30.18F
BAR HARBOR     MOSUNNY   43  39  87 S14       30.16F
WISCASSET      MOSUNNY   43  36  76 S10       30.18F
6HR MIN TEMP:  30; 6HR MAX TEMP:  43;

ROCKLAND       MOSUNNY   43  36  75 SW13      30.17F
FRYEBURG       CLOUDY    42  27  55 CALM      30.14F
6HR MIN TEMP:  34; 6HR MAX TEMP:  42;

LEWISTONAUBURN CLOUDY    37  28  70 S3        30.15F
AUGUSTA        CLOUDY    39  33  79 S7        30.15F
6HR MIN TEMP:  35; 6HR MAX TEMP:  39;

WATERVILLE     MOSUNNY   39  34  81 S6        30.11R
BANGOR         MOSUNNY   42  33  70 SW12      30.14F
6HR MIN TEMP:  36; 6HR MAX TEMP:  42;

GREENVILLE       N/A     36  22  56 SE3       30.04F
6HR MIN TEMP:  33; 6HR MAX TEMP:  36;

MILLINOCKET    CLOUDY    39  25  57 VRB3      30.10F
6HR MIN TEMP:  36; 6HR MAX TEMP:  39;

HOULTON        CLOUDY    38  23  55 SW6       30.07S
6HR MIN TEMP:  37; 6HR MAX TEMP:  40;

PRESQUE ISLE   CLOUDY    37  25  60 S5        30.05F
6HR MIN TEMP:  37; 6HR MAX TEMP:  41;

FRENCHVILLE    CLOUDY    36  24  62 S9        29.99F
6HR MIN TEMP:  35; 6HR MAX TEMP:  37; 6HR PCP: TRACE;

CARIBOU        CLOUDY    38  27  64 S9        30.03F
6HR MIN TEMP:  37; 6HR MAX TEMP:  39;

$$

NHZ002-005-008-009-011-012-014-211300-
NEW HAMPSHIRE

CITY           SKY/WX    TMP DP  RH WIND       PRES   REMARKS
PORTSMOUTH     PTSUNNY   41  32  71 SW3       30.19F
ROCHESTER      MOSUNNY   39  29  67 VRB3      30.18F
6HR MIN TEMP:  29; 6HR MAX TEMP:  39;

NASHUA         SUNNY     43  27  53 VRB3      30.20F
MANCHESTER     PTSUNNY   40  28  62 SW5       30.18F
6HR MIN TEMP:  34; 6HR MAX TEMP:  40;

CONCORD        SUNNY     39  29  67 S3        30.18F
6HR MIN TEMP:  28; 6HR MAX TEMP:  39;

LACONIA        MOSUNNY   39  27  60 SW8       30.17S
PLYMOUTH         N/A     37  30  74 CALM      30.16F
BERLIN         CLOUDY    39  29  67 S3        30.10F
6HR MIN TEMP:  30; 6HR MAX TEMP:  39;

WHITEFIELD     CLOUDY    39  28  64 CALM      30.11F
6HR MIN TEMP:  30; 6HR MAX TEMP:  39;

JAFFREY        SUNNY     39  26  59 S7        30.18F
6HR MIN TEMP:  30; 6HR MAX TEMP:  39;

LEBANON        CLOUDY    44  26  49 S7        30.15F
6HR MIN TEMP:  33; 6HR MAX TEMP:  44;

MT WASHINGTON  PTSUNNY   34  14  44 W30         N/A
6HR MIN TEMP:  30; 6HR MAX TEMP:  34;

$$

VTZ005-007-008-211300-
VERMONT

CITY           SKY/WX    TMP DP  RH WIND       PRES   REMARKS
ST JOHNSBURY     N/A     44  26  49 MISG      30.10F
MONTPELIER     CLOUDY    43  27  53 CALM      30.13F
BURLINGTON     CLOUDY    50  26  39 S15G25    30.10S
$$

MAZ007-012-024-CTZ003-RIZ002-NYZ038-NYZ072-211300-
SOUTHERN NEW ENGLAND AND NY

CITY           SKY/WX    TMP DP  RH WIND       PRES   REMARKS
BOSTON         MOSUNNY   42  35  76 S7        30.23S
WORCESTER      SUNNY     43  16  33 SW10      30.19S
NANTUCKET      SUNNY     45  41  86 SE10      30.22S
PROVIDENCE     MOSUNNY   42  38  85 VRB6      30.24S
HARTFORD       MOSUNNY   40  30  67 S6        30.22F
ALBANY         PTSUNNY   45  27  49 S13       30.19F
NEW YORK CITY  MOSUNNY   44  34  67 NE7       30.22F
$$

ANZ081-ANZ082-ANZ150-NHZ014-MEZ023>029-211300-
COASTAL MARINE OBSERVATIONS

STATION/POSITION TIME  TEMP    WIND        PRES    WAVE
                       AIR SEA DIR/SP/G            HT/PER
                 (UTC) (F)     (DEG/KT/KT) (MB)    (FT/S)
MOUNT DESERT ROC 1200   41                 1021.8F
MATINICUS ROCK   1100   40     210/ 18/ 20 1022.7F
PORTLAND WX BUOY 1200   42 42  210/ 16/ 17 1021.9F   3/ 4
WELLS            1200   40 40  200/  4/  4 1021.6F
ISLE OF SHOALS   1100   40     210/ 13/ 14 1022.2F
JEFFREYS LEDGE   1100      41                N/A     2/ 8
CASHES LEDGE BUO 1200   42 41  190/ 12/ 16 1022.9F   2/ 7
$$

.............KEY..............
   WCI - WIND CHILL
   TC  - TEMPERATURE IN CELSIUS
   VSB - VISIBILITY IN MILES
   HX  - HEAT INDEX
   FAIR- INDICATES FEW OR NO CLOUDS BELOW 12,000 FT, WITH NO
         SIGNIFICANT WEATHER AND/OR OBSTRUCTIONS TO VISIBILITY.





USA.gov is the U.S. government's official web portal to all federal, state and local government web resources and services.